Simultaneous Nadir Overpasses (SNOs) Predictions

Prediction of SNOs between GOES-15 and METOP-A Satellite Orbit:

Table of predicted SNOs for the next 14.0 days since TLE Epoch: 8/31/2013
Index Date Time (GOES-15) GOES-15 Lat,Lon METOP-A Lat,Lon Distance(km) Time Diff (sec)
1 08/31/2013 06:22:36 0.27,-135.32 0.79,-133.07 257.33 80
2 09/01/2013 18:38:48 -0.30,-135.39 0.23,-137.63 256.40 80
3 09/02/2013 18:20:49 -0.28,-135.41 -0.87,-132.64 315.58 80
4 09/04/2013 06:37:10 0.31,-135.41 -0.08,-137.24 209.00 80
5 09/05/2013 06:19:11 0.29,-135.42 1.02,-132.25 362.01 80
6 09/06/2013 18:35:23 -0.32,-135.47 -0.02,-136.81 153.19 80
7 09/07/2013 18:17:24 -0.30,-135.48 -1.12,-131.81 418.04 80
8 09/09/2013 06:33:44 0.33,-135.47 0.11,-136.41 106.98 80
9 09/10/2013 06:15:45
